Time,TemperatureF,DewpointF,PressureIn,WindDirection,WindDirectionDegrees,WindSpeedMPH,WindSpeedGustMPH,Humidity,HourlyPrecipIn,Conditions,Clouds,dailyrainin,SoftwareType,DateUTC
2013-08-30 00:00:00,66.6,61.3,29.67,SSE,158,0.0,0.7,83,0.00,,,0.00,WUHU216HW,2013-08-30 04:00:00,
2013-08-30 00:01:00,66.6,61.3,29.67,SSE,158,0.0,0.7,83,0.00,,,0.00,WUHU216HW,2013-08-30 04:01:00,
2013-08-30 00:06:00,66.6,61.3,29.67,SE,135,0.0,0.7,83,0.00,,,0.00,WUHU216HW,2013-08-30 04:06:00,
2013-08-30 00:11:00,66.4,61.1,29.67,SSE,158,0.0,0.4,83,0.00,,,0.00,WUHU216HW,2013-08-30 04:11:00,
2013-08-30 00:16:00,66.4,61.1,29.67,South,180,0.2,0.4,83,0.00,,,0.00,WUHU216HW,2013-08-30 04:16:00,
2013-08-30 00:21:00,66.6,61.6,29.67,SSE,158,0.4,1.1,84,0.00,,,0.00,WUHU216HW,2013-08-30 04:21:00,
2013-08-30 00:26:00,66.6,61.6,29.67,SSW,203,1.8,2.0,84,0.00,,,0.00,WUHU216HW,2013-08-30 04:26:00,
2013-08-30 00:31:00,66.6,61.6,29.67,SSE,158,0.4,2.0,84,0.00,,,0.00,WUHU216HW,2013-08-30 04:31:00,
2013-08-30 00:36:00,66.8,61.7,29.67,SSW,203,0.0,1.6,84,0.00,,,0.00,WUHU216HW,2013-08-30 04:36:00,
2013-08-30 00:41:00,66.8,61.7,29.67,SSE,158,0.0,1.3,84,0.00,,,0.00,WUHU216HW,2013-08-30 04:41:00,
2013-08-30 00:46:00,66.8,61.7,29.66,SE,135,1.1,1.3,84,0.00,,,0.00,WUHU216HW,2013-08-30 04:46:00,
2013-08-30 00:51:00,66.8,61.7,29.66,SSE,158,0.4,1.1,84,0.00,,,0.00,WUHU216HW,2013-08-30 04:51:00,
2013-08-30 00:56:00,66.8,61.7,29.66,SSE,158,0.7,2.0,84,0.00,,,0.00,WUHU216HW,2013-08-30 04:56:00,
2013-08-30 01:01:00,66.8,61.7,29.66,South,180,1.1,2.0,84,0.00,,,0.00,WUHU216HW,2013-08-30 05:01:00,
2013-08-30 01:06:00,66.8,61.7,29.66,South,180,0.4,1.8,84,0.00,,,0.00,WUHU216HW,2013-08-30 05:06:00,
2013-08-30 01:11:00,66.8,61.7,29.66,SSE,158,1.1,2.5,84,0.00,,,0.00,WUHU216HW,2013-08-30 05:11:00,
2013-08-30 01:16:00,66.8,61.7,29.66,ESE,113,0.4,2.7,84,0.00,,,0.00,WUHU216HW,2013-08-30 05:16:00,
2013-08-30 01:21:00,66.6,61.6,29.66,South,180,0.7,2.7,84,0.00,,,0.00,WUHU216HW,2013-08-30 05:21:00,
2013-08-30 01:26:00,66.6,61.6,29.66,SSE,158,0.4,0.9,84,0.00,,,0.00,WUHU216HW,2013-08-30 05:26:00,
2013-08-30 01:31:00,66.6,61.6,29.66,SSE,158,0.4,0.7,84,0.00,,,0.00,WUHU216HW,2013-08-30 05:31:00,
2013-08-30 01:36:00,66.4,61.4,29.66,South,180,0.0,1.1,84,0.00,,,0.00,WUHU216HW,2013-08-30 05:36:00,
2013-08-30 01:41:00,66.4,61.4,29.66,SSE,158,0.0,1.1,84,0.00,,,0.00,WUHU216HW,2013-08-30 05:41:00,
2013-08-30 01:46:00,66.4,61.4,29.66,SSE,158,0.0,0.4,84,0.00,,,0.00,WUHU216HW,2013-08-30 05:46:00,
2013-08-30 01:51:00,66.2,61.2,29.66,SE,135,0.0,0.4,84,0.00,,,0.00,WUHU216HW,2013-08-30 05:51:00,
2013-08-30 01:56:00,66.2,61.2,29.66,ESE,113,0.0,0.7,84,0.00,,,0.00,WUHU216HW,2013-08-30 05:56:00,
2013-08-30 02:01:00,66.1,61.0,29.66,SE,135,0.4,0.7,84,0.00,,,0.00,WUHU216HW,2013-08-30 06:01:00,
2013-08-30 02:06:00,66.1,61.0,29.66,SE,135,0.2,0.9,84,0.00,,,0.00,WUHU216HW,2013-08-30 06:06:00,
2013-08-30 02:11:00,66.1,61.4,29.65,SSE,158,1.1,1.1,85,0.00,,,0.00,WUHU216HW,2013-08-30 06:11:00,
2013-08-30 02:16:00,66.1,61.4,29.65,SSE,158,1.1,1.1,85,0.00,,,0.00,WUHU216HW,2013-08-30 06:16:00,
2013-08-30 02:21:00,66.1,61.4,29.65,SSE,158,0.7,1.1,85,0.00,,,0.00,WUHU216HW,2013-08-30 06:21:00,
2013-08-30 02:26:00,66.1,61.4,29.64,SSE,158,0.7,1.1,85,0.00,,,0.00,WUHU216HW,2013-08-30 06:26:00,
2013-08-30 02:31:00,65.9,61.2,29.64,SE,135,0.0,1.8,85,0.00,,,0.00,WUHU216HW,2013-08-30 06:31:00,
2013-08-30 02:36:00,65.9,61.2,29.64,SE,135,0.0,1.8,85,0.00,,,0.00,WUHU216HW,2013-08-30 06:36:00,
2013-08-30 02:41:00,65.9,61.2,29.64,SSW,203,0.4,0.4,85,0.00,,,0.00,WUHU216HW,2013-08-30 06:41:00,
2013-08-30 02:46:00,66.1,61.4,29.64,SSE,158,0.4,0.9,85,0.00,,,0.00,WUHU216HW,2013-08-30 06:46:00,
2013-08-30 02:51:00,66.1,61.4,29.64,SSE,158,0.0,0.9,85,0.00,,,0.00,WUHU216HW,2013-08-30 06:51:00,
2013-08-30 02:56:00,66.1,61.4,29.64,SSE,158,0.4,0.9,85,0.00,,,0.00,WUHU216HW,2013-08-30 06:56:00,
2013-08-30 03:01:00,66.2,61.6,29.64,SE,135,0.9,4.9,85,0.00,,,0.00,WUHU216HW,2013-08-30 07:01:00,
2013-08-30 03:06:00,66.2,61.9,29.64,South,180,0.4,4.9,86,0.00,,,0.00,WUHU216HW,2013-08-30 07:06:00,
2013-08-30 03:11:00,66.2,61.9,29.63,SSW,203,3.4,4.7,86,0.00,,,0.00,WUHU216HW,2013-08-30 07:11:00,
2013-08-30 03:16:00,66.4,62.1,29.63,South,180,1.8,4.3,86,0.00,,,0.00,WUHU216HW,2013-08-30 07:16:00,
2013-08-30 03:21:00,66.6,62.3,29.63,SSE,158,1.1,3.4,86,0.00,,,0.00,WUHU216HW,2013-08-30 07:21:00,
2013-08-30 03:26:00,66.6,62.3,29.63,SSE,158,2.7,3.1,86,0.00,,,0.00,WUHU216HW,2013-08-30 07:26:00,
2013-08-30 03:31:00,66.6,62.3,29.63,SSE,158,1.8,4.7,86,0.00,,,0.00,WUHU216HW,2013-08-30 07:31:00,
2013-08-30 03:36:00,66.6,62.3,29.63,South,180,2.2,4.7,86,0.00,,,0.00,WUHU216HW,2013-08-30 07:36:00,
2013-08-30 03:41:00,66.4,62.1,29.63,SSE,158,0.7,4.0,86,0.00,,,0.00,WUHU216HW,2013-08-30 07:41:00,
2013-08-30 03:46:00,66.4,62.1,29.63,South,180,1.1,4.0,86,0.00,,,0.00,WUHU216HW,2013-08-30 07:46:00,
2013-08-30 03:51:00,66.4,62.1,29.63,SSE,158,1.1,3.6,86,0.00,,,0.00,WUHU216HW,2013-08-30 07:51:00,
2013-08-30 03:56:00,66.2,61.9,29.63,SE,135,0.9,3.6,86,0.00,,,0.00,WUHU216HW,2013-08-30 07:56:00,
2013-08-30 04:01:00,66.1,61.8,29.63,SSE,158,1.1,1.8,86,0.00,,,0.00,WUHU216HW,2013-08-30 08:01:00,
2013-08-30 04:06:00,66.1,61.8,29.63,SSE,158,0.4,1.3,86,0.00,,,0.00,WUHU216HW,2013-08-30 08:06:00,
2013-08-30 04:11:00,65.9,61.6,29.63,SSE,158,1.1,2.5,86,0.00,,,0.00,WUHU216HW,2013-08-30 08:11:00,
2013-08-30 04:16:00,65.9,61.8,29.63,SSE,158,0.7,2.5,87,0.00,,,0.00,WUHU216HW,2013-08-30 08:16:00,
2013-08-30 04:21:00,65.9,61.8,29.63,SSE,158,1.8,1.8,87,0.00,,,0.00,WUHU216HW,2013-08-30 08:21:00,
2013-08-30 04:26:00,65.9,61.8,29.63,ESE,113,1.1,1.8,87,0.00,,,0.00,WUHU216HW,2013-08-30 08:26:00,
2013-08-30 04:31:00,65.9,61.8,29.63,SSE,158,0.9,1.8,87,0.00,,,0.00,WUHU216HW,2013-08-30 08:31:00,
2013-08-30 04:36:00,65.7,61.8,29.63,SSE,158,0.7,1.6,87,0.00,,,0.00,WUHU216HW,2013-08-30 08:36:00,
2013-08-30 04:41:00,65.5,61.6,29.63,SSW,203,0.9,1.8,87,0.00,,,0.00,WUHU216HW,2013-08-30 08:41:00,
2013-08-30 04:46:00,65.5,61.6,29.63,SSE,158,0.4,1.8,87,0.00,,,0.00,WUHU216HW,2013-08-30 08:46:00,
2013-08-30 04:51:00,65.3,61.4,29.63,SSW,203,0.7,1.8,87,0.00,,,0.00,WUHU216HW,2013-08-30 08:51:00,
2013-08-30 04:56:00,65.3,61.4,29.63,SSE,158,0.0,1.8,87,0.00,,,0.00,WUHU216HW,2013-08-30 08:56:00,
2013-08-30 05:01:00,65.2,61.2,29.63,SE,135,0.0,1.8,87,0.00,,,0.00,WUHU216HW,2013-08-30 09:01:00,
2013-08-30 05:06:00,65.2,61.2,29.63,East,90,0.0,0.7,87,0.00,,,0.00,WUHU216HW,2013-08-30 09:06:00,
2013-08-30 05:11:00,65.2,61.2,29.63,North,0,0.7,1.1,87,0.00,,,0.00,WUHU216HW,2013-08-30 09:11:00,
2013-08-30 05:16:00,65.2,61.2,29.63,North,0,0.0,1.1,87,0.00,,,0.00,WUHU216HW,2013-08-30 09:16:00,
2013-08-30 05:21:00,65.2,61.2,29.63,North,0,0.0,1.1,87,0.00,,,0.00,WUHU216HW,2013-08-30 09:21:00,
2013-08-30 05:26:00,65.0,61.0,29.63,North,0,0.0,0.0,87,0.00,,,0.00,WUHU216HW,2013-08-30 09:26:00,
2013-08-30 05:31:00,65.0,61.0,29.63,North,0,0.0,0.0,87,0.00,,,0.00,WUHU216HW,2013-08-30 09:31:00,
2013-08-30 05:36:00,65.0,61.0,29.63,NE,45,0.0,0.0,87,0.00,,,0.00,WUHU216HW,2013-08-30 09:36:00,
2013-08-30 05:41:00,65.0,61.0,29.63,NE,45,0.0,0.0,87,0.00,,,0.00,WUHU216HW,2013-08-30 09:41:00,
2013-08-30 05:46:00,65.0,61.0,29.63,NE,45,0.0,0.0,87,0.00,,,0.00,WUHU216HW,2013-08-30 09:46:00,
2013-08-30 05:51:00,65.0,61.0,29.64,WNW,293,0.0,0.0,87,0.00,,,0.00,WUHU216HW,2013-08-30 09:51:00,
2013-08-30 05:56:00,65.0,61.0,29.63,SW,225,0.4,0.4,87,0.00,,,0.00,WUHU216HW,2013-08-30 09:56:00,
2013-08-30 06:01:00,65.0,61.0,29.64,SW,225,0.0,0.4,87,0.00,,,0.00,WUHU216HW,2013-08-30 10:01:00,
2013-08-30 06:06:00,65.0,61.0,29.64,SW,225,0.0,0.4,87,0.00,,,0.00,WUHU216HW,2013-08-30 10:06:00,
2013-08-30 06:11:00,65.2,61.2,29.64,SW,225,0.0,0.0,87,0.00,,,0.00,WUHU216HW,2013-08-30 10:11:00,
2013-08-30 06:16:00,65.2,61.6,29.65,WSW,248,0.0,0.0,88,0.00,,,0.00,WUHU216HW,2013-08-30 10:16:00,
2013-08-30 06:21:00,65.2,61.6,29.65,West,270,0.0,0.0,88,0.00,,,0.00,WUHU216HW,2013-08-30 10:21:00,
2013-08-30 06:26:00,65.2,61.6,29.65,NW,315,0.0,0.0,88,0.00,,,0.00,WUHU216HW,2013-08-30 10:26:00,
2013-08-30 06:30:00,65.2,61.6,29.65,NNW,338,0.0,0.4,88,0.00,,,0.00,WUHU216HW,2013-08-30 10:30:00,
2013-08-30 06:35:00,65.2,61.6,29.65,NNW,338,0.0,0.9,88,0.00,,,0.00,WUHU216HW,2013-08-30 10:35:00,
2013-08-30 06:40:00,65.2,61.6,29.65,North,0,0.2,0.9,88,0.00,,,0.00,WUHU216HW,2013-08-30 10:40:00,
2013-08-30 06:45:00,65.3,61.8,29.64,SSW,203,0.7,0.9,88,0.00,,,0.00,WUHU216HW,2013-08-30 10:45:00,
2013-08-30 06:50:00,65.7,62.0,29.64,SSW,203,0.0,0.9,88,0.00,,,0.00,WUHU216HW,2013-08-30 10:50:00,
2013-08-30 06:55:00,65.9,62.2,29.64,SSW,203,0.0,0.7,88,0.00,,,0.00,WUHU216HW,2013-08-30 10:55:00,
2013-08-30 07:00:00,65.9,62.2,29.64,SSW,203,1.3,2.0,88,0.00,,,0.00,WUHU216HW,2013-08-30 11:00:00,
2013-08-30 07:05:00,66.1,62.4,29.64,SE,135,0.0,2.2,88,0.00,,,0.00,WUHU216HW,2013-08-30 11:05:00,
2013-08-30 07:10:00,66.2,62.6,29.64,SSW,203,0.2,2.2,88,0.00,,,0.00,WUHU216HW,2013-08-30 11:10:00,
2013-08-30 07:15:00,66.4,62.7,29.64,South,180,1.3,1.6,88,0.00,,,0.00,WUHU216HW,2013-08-30 11:15:00,
2013-08-30 07:20:00,66.6,62.9,29.64,SSE,158,0.4,2.0,88,0.00,,,0.00,WUHU216HW,2013-08-30 11:20:00,
2013-08-30 07:25:00,66.8,62.7,29.64,SSW,203,0.0,2.0,87,0.00,,,0.00,WUHU216HW,2013-08-30 11:25:00,
2013-08-30 07:30:00,66.8,62.7,29.64,South,180,0.0,1.1,87,0.00,,,0.00,WUHU216HW,2013-08-30 11:30:00,
2013-08-30 07:35:00,67.0,62.9,29.64,South,180,0.0,1.3,87,0.00,,,0.00,WUHU216HW,2013-08-30 11:35:00,
2013-08-30 07:40:00,67.3,63.3,29.64,SW,225,0.0,1.3,87,0.00,,,0.00,WUHU216HW,2013-08-30 11:40:00,
2013-08-30 07:45:00,67.5,63.5,29.64,WSW,248,0.0,0.7,87,0.00,,,0.00,WUHU216HW,2013-08-30 11:45:00,
2013-08-30 07:50:00,67.7,63.4,29.64,WSW,248,0.0,0.0,86,0.00,,,0.00,WUHU216HW,2013-08-30 11:50:00,
2013-08-30 07:55:00,68.0,63.7,29.64,WSW,248,0.0,0.0,86,0.00,,,0.00,WUHU216HW,2013-08-30 11:55:00,
2013-08-30 08:00:00,68.0,63.7,29.64,SSW,203,0.4,0.9,86,0.00,,,0.00,WUHU216HW,2013-08-30 12:00:00,
2013-08-30 08:05:00,68.4,64.0,29.64,SW,225,0.4,0.9,86,0.00,,,0.00,WUHU216HW,2013-08-30 12:05:00,
2013-08-30 08:10:00,68.8,64.1,29.64,West,270,0.0,0.7,85,0.00,,,0.00,WUHU216HW,2013-08-30 12:10:00,
2013-08-30 08:15:00,69.1,64.4,29.64,WSW,248,0.4,0.7,85,0.00,,,0.00,WUHU216HW,2013-08-30 12:15:00,
2013-08-30 08:20:00,69.3,64.3,29.64,West,270,0.0,1.1,84,0.00,,,0.00,WUHU216HW,2013-08-30 12:20:00,
2013-08-30 08:25:00,69.3,64.3,29.64,NNW,338,0.0,1.1,84,0.00,,,0.00,WUHU216HW,2013-08-30 12:25:00,
2013-08-30 08:30:00,69.3,64.3,29.64,NNW,338,0.4,1.8,84,0.00,,,0.00,WUHU216HW,2013-08-30 12:30:00,
2013-08-30 08:35:00,69.5,64.4,29.64,NNW,338,0.0,1.8,84,0.00,,,0.00,WUHU216HW,2013-08-30 12:35:00,
2013-08-30 08:40:00,69.5,64.4,29.64,North,0,0.7,2.7,84,0.00,,,0.00,WUHU216HW,2013-08-30 12:40:00,
2013-08-30 08:45:00,69.7,64.5,29.64,North,0,0.0,2.7,84,0.00,,,0.00,WUHU216HW,2013-08-30 12:45:00,
2013-08-30 08:50:00,70.7,65.6,29.64,SSW,203,0.4,1.6,84,0.00,,,0.00,WUHU216HW,2013-08-30 12:50:00,
2013-08-30 08:55:00,71.6,65.9,29.64,North,0,0.7,1.1,82,0.00,,,0.00,WUHU216HW,2013-08-30 12:55:00,
2013-08-30 09:00:00,71.6,65.5,29.64,ENE,68,0.4,0.9,81,0.00,,,0.00,WUHU216HW,2013-08-30 13:00:00,
2013-08-30 09:05:00,71.6,65.2,29.64,North,0,0.4,1.3,80,0.00,,,0.00,WUHU216HW,2013-08-30 13:05:00,
2013-08-30 09:10:00,71.3,64.8,29.64,NNE,23,2.9,2.9,80,0.00,,,0.00,WUHU216HW,2013-08-30 13:10:00,
2013-08-30 09:15:00,71.1,65.0,29.64,North,0,2.9,2.9,81,0.00,,,0.00,WUHU216HW,2013-08-30 13:15:00,
2013-08-30 09:20:00,70.9,64.4,29.64,North,0,2.2,5.1,80,0.00,,,0.00,WUHU216HW,2013-08-30 13:20:00,
2013-08-30 09:25:00,71.1,64.6,29.64,East,90,1.1,5.1,80,0.00,,,0.00,WUHU216HW,2013-08-30 13:25:00,
2013-08-30 09:30:00,71.6,65.2,29.64,South,180,0.2,3.4,80,0.00,,,0.00,WUHU216HW,2013-08-30 13:30:00,
2013-08-30 09:35:00,71.8,65.0,29.64,NNE,23,2.5,4.0,79,0.00,,,0.00,WUHU216HW,2013-08-30 13:35:00,
2013-08-30 09:40:00,72.0,65.5,29.63,WNW,293,0.0,4.0,80,0.00,,,0.00,WUHU216HW,2013-08-30 13:40:00,
2013-08-30 09:45:00,72.9,66.8,29.63,SE,135,0.4,2.7,81,0.00,,,0.00,WUHU216HW,2013-08-30 13:45:00,
2013-08-30 09:50:00,74.0,67.5,29.64,WSW,248,0.2,1.1,80,0.00,,,0.00,WUHU216HW,2013-08-30 13:50:00,
2013-08-30 09:55:00,74.5,67.2,29.63,SSE,158,0.7,1.1,78,0.00,,,0.00,WUHU216HW,2013-08-30 13:55:00,
2013-08-30 10:00:00,75.4,68.1,29.63,SSE,158,0.2,1.1,78,0.00,,,0.00,WUHU216HW,2013-08-30 14:00:00,
2013-08-30 10:05:00,76.0,68.2,29.63,North,0,1.1,1.8,77,0.00,,,0.00,WUHU216HW,2013-08-30 14:05:00,
2013-08-30 10:10:00,76.1,68.1,29.63,ESE,113,0.4,2.0,76,0.00,,,0.00,WUHU216HW,2013-08-30 14:10:00,
2013-08-30 10:15:00,75.8,67.3,29.63,WNW,293,0.2,2.0,75,0.00,,,0.00,WUHU216HW,2013-08-30 14:15:00,
2013-08-30 10:20:00,75.2,66.8,29.63,ENE,68,0.4,1.6,75,0.00,,,0.00,WUHU216HW,2013-08-30 14:20:00,
2013-08-30 10:25:00,74.5,66.1,29.63,SE,135,0.0,1.6,75,0.00,,,0.00,WUHU216HW,2013-08-30 14:25:00,
2013-08-30 10:30:00,74.9,66.9,29.63,SSE,158,0.0,1.1,76,0.00,,,0.00,WUHU216HW,2013-08-30 14:30:00,
2013-08-30 10:35:00,75.2,66.8,29.63,North,0,1.3,1.3,75,0.00,,,0.00,WUHU216HW,2013-08-30 14:35:00,
2013-08-30 10:40:00,75.1,66.6,29.63,NNW,338,0.0,2.7,75,0.00,,,0.00,WUHU216HW,2013-08-30 14:40:00,
2013-08-30 10:45:00,75.2,66.8,29.63,NNW,338,0.0,2.7,75,0.00,,,0.00,WUHU216HW,2013-08-30 14:45:00,
2013-08-30 10:50:00,76.0,67.5,29.63,WSW,248,0.2,1.3,75,0.00,,,0.00,WUHU216HW,2013-08-30 14:50:00,
2013-08-30 10:55:00,77.0,68.5,29.63,SSE,158,0.4,1.3,75,0.00,,,0.00,WUHU216HW,2013-08-30 14:55:00,
2013-08-30 11:00:00,78.1,69.1,29.63,SSW,203,1.3,1.8,74,0.00,,,0.00,WUHU216HW,2013-08-30 15:00:00,
2013-08-30 11:05:00,78.5,68.3,29.63,North,0,1.1,3.8,71,0.00,,,0.00,WUHU216HW,2013-08-30 15:05:00,
2013-08-30 11:10:00,78.1,68.3,29.63,NNW,338,0.0,3.8,72,0.00,,,0.00,WUHU216HW,2013-08-30 15:10:00,
2013-08-30 11:15:00,77.9,68.2,29.63,NNW,338,0.0,1.8,72,0.00,,,0.00,WUHU216HW,2013-08-30 15:15:00,
2013-08-30 11:20:00,78.5,68.7,29.63,SE,135,0.4,1.8,72,0.00,,,0.00,WUHU216HW,2013-08-30 15:20:00,
2013-08-30 11:25:00,79.0,68.8,29.63,NNW,338,0.9,1.8,71,0.00,,,0.00,WUHU216HW,2013-08-30 15:25:00,
2013-08-30 11:30:00,78.5,67.9,29.62,NW,315,0.2,3.1,70,0.00,,,0.00,WUHU216HW,2013-08-30 15:30:00,
2013-08-30 11:35:00,78.5,68.3,29.62,SSW,203,0.4,3.1,71,0.00,,,0.00,WUHU216HW,2013-08-30 15:35:00,
2013-08-30 11:40:00,78.7,68.5,29.62,West,270,1.1,2.0,71,0.00,,,0.00,WUHU216HW,2013-08-30 15:40:00,
2013-08-30 11:45:00,78.8,68.6,29.62,WSW,248,0.7,1.6,71,0.00,,,0.00,WUHU216HW,2013-08-30 15:45:00,
2013-08-30 11:50:00,79.0,68.8,29.61,South,180,0.9,1.8,71,0.00,,,0.00,WUHU216HW,2013-08-30 15:50:00,
2013-08-30 11:55:00,79.7,69.5,29.61,ENE,68,0.2,2.2,71,0.00,,,0.00,WUHU216HW,2013-08-30 15:55:00,
2013-08-30 12:00:00,79.9,68.9,29.60,SE,135,0.9,3.6,69,0.00,,,0.00,WUHU216HW,2013-08-30 16:00:00,
2013-08-30 12:05:00,79.9,68.9,29.60,South,180,1.6,3.6,69,0.00,,,0.00,WUHU216HW,2013-08-30 16:05:00,
2013-08-30 12:10:00,80.3,69.2,29.60,SSW,203,1.8,4.9,69,0.00,,,0.00,WUHU216HW,2013-08-30 16:10:00,
2013-08-30 12:15:00,81.0,69.5,29.60,SE,135,1.1,4.9,68,0.00,,,0.00,WUHU216HW,2013-08-30 16:15:00,
2013-08-30 12:20:00,81.2,69.6,29.60,ENE,68,0.9,3.6,68,0.00,,,0.00,WUHU216HW,2013-08-30 16:20:00,
2013-08-30 12:25:00,81.5,69.9,29.60,SSW,203,4.0,6.3,68,0.00,,,0.00,WUHU216HW,2013-08-30 16:25:00,
2013-08-30 12:30:00,81.9,69.9,29.59,SSW,203,4.0,6.3,67,0.00,,,0.00,WUHU216HW,2013-08-30 16:30:00,
2013-08-30 12:35:00,81.4,69.3,29.59,East,90,0.4,4.7,67,0.00,,,0.00,WUHU216HW,2013-08-30 16:35:00,
2013-08-30 12:40:00,81.4,69.3,29.58,South,180,2.7,4.0,67,0.00,,,0.00,WUHU216HW,2013-08-30 16:40:00,
2013-08-30 12:45:00,81.9,70.3,29.58,SSE,158,3.4,4.0,68,0.00,,,0.00,WUHU216HW,2013-08-30 16:45:00,
2013-08-30 12:50:00,82.3,70.1,29.58,SSE,158,2.0,5.1,67,0.00,,,0.00,WUHU216HW,2013-08-30 16:50:00,
2013-08-30 12:55:00,82.1,69.5,29.58,North,0,1.1,5.1,66,0.00,,,0.00,WUHU216HW,2013-08-30 16:55:00,
2013-08-30 13:00:00,82.1,69.5,29.58,East,90,0.4,2.2,66,0.00,,,0.00,WUHU216HW,2013-08-30 17:00:00,
2013-08-30 13:05:00,82.3,69.7,29.58,ESE,113,1.8,2.9,66,0.00,,,0.00,WUHU216HW,2013-08-30 17:05:00,
2013-08-30 13:10:00,82.4,69.8,29.58,SSE,158,2.5,2.9,66,0.00,,,0.00,WUHU216HW,2013-08-30 17:10:00,
2013-08-30 13:15:00,82.8,70.7,29.58,SSE,158,1.1,2.5,67,0.00,,,0.00,WUHU216HW,2013-08-30 17:15:00,
2013-08-30 13:20:00,83.3,71.2,29.58,South,180,1.1,2.5,67,0.00,,,0.00,WUHU216HW,2013-08-30 17:20:00,
2013-08-30 13:25:00,83.5,70.9,29.57,ESE,113,1.8,2.7,66,0.00,,,0.00,WUHU216HW,2013-08-30 17:25:00,
2013-08-30 13:30:00,83.5,70.9,29.57,SE,135,0.4,2.9,66,0.00,,,0.00,WUHU216HW,2013-08-30 17:30:00,
2013-08-30 13:35:00,83.9,71.3,29.57,ESE,113,1.1,2.9,66,0.00,,,0.00,WUHU216HW,2013-08-30 17:35:00,
2013-08-30 13:40:00,84.2,71.6,29.57,SSE,158,1.6,3.4,66,0.00,,,0.00,WUHU216HW,2013-08-30 17:40:00,
2013-08-30 13:45:00,84.4,71.4,29.57,West,270,0.7,3.4,65,0.00,,,0.00,WUHU216HW,2013-08-30 17:45:00,
2013-08-30 13:50:00,84.6,71.6,29.56,ESE,113,1.1,2.7,65,0.00,,,0.00,WUHU216HW,2013-08-30 17:50:00,
2013-08-30 13:55:00,84.6,71.6,29.56,South,180,2.5,2.5,65,0.00,,,0.00,WUHU216HW,2013-08-30 17:55:00,
2013-08-30 14:00:00,84.8,71.7,29.56,SSE,158,1.6,2.5,65,0.00,,,0.00,WUHU216HW,2013-08-30 18:00:00,
2013-08-30 14:05:00,85.0,71.9,29.55,SE,135,0.9,2.5,65,0.00,,,0.00,WUHU216HW,2013-08-30 18:05:00,
2013-08-30 14:10:00,85.3,72.2,29.56,ENE,68,0.4,2.5,65,0.00,,,0.00,WUHU216HW,2013-08-30 18:10:00,
2013-08-30 14:15:00,85.5,71.9,29.55,SSW,203,1.6,2.0,64,0.00,,,0.00,WUHU216HW,2013-08-30 18:15:00,
2013-08-30 14:20:00,86.0,72.5,29.55,South,180,1.8,2.7,64,0.00,,,0.00,WUHU216HW,2013-08-30 18:20:00,
2013-08-30 14:25:00,86.0,72.0,29.55,SE,135,1.1,3.1,63,0.00,,,0.00,WUHU216HW,2013-08-30 18:25:00,
2013-08-30 14:30:00,86.0,71.0,29.55,SW,225,1.8,3.1,61,0.00,,,0.00,WUHU216HW,2013-08-30 18:30:00,
2013-08-30 14:35:00,85.3,71.3,29.55,South,180,1.1,3.1,63,0.00,,,0.00,WUHU216HW,2013-08-30 18:35:00,
2013-08-30 14:40:00,85.3,70.8,29.54,SE,135,1.1,3.1,62,0.00,,,0.00,WUHU216HW,2013-08-30 18:40:00,
2013-08-30 14:45:00,85.5,71.5,29.55,ESE,113,1.3,2.7,63,0.00,,,0.00,WUHU216HW,2013-08-30 18:45:00,
2013-08-30 14:50:00,85.7,70.8,29.54,North,0,2.7,2.7,61,0.00,,,0.00,WUHU216HW,2013-08-30 18:50:00,
2013-08-30 14:55:00,86.4,72.3,29.55,East,90,1.8,2.7,63,0.00,,,0.00,WUHU216HW,2013-08-30 18:55:00,
2013-08-30 15:00:00,86.9,72.4,29.54,ENE,68,3.1,3.1,62,0.00,,,0.00,WUHU216HW,2013-08-30 19:00:00,
2013-08-30 15:05:00,86.8,72.2,29.54,SSE,158,0.2,3.1,62,0.00,,,0.00,WUHU216HW,2013-08-30 19:05:00,
2013-08-30 15:10:00,87.1,72.1,29.54,WSW,248,0.4,2.5,61,0.00,,,0.00,WUHU216HW,2013-08-30 19:10:00,
2013-08-30 15:15:00,87.3,72.3,29.54,WSW,248,0.9,2.5,61,0.00,,,0.00,WUHU216HW,2013-08-30 19:15:00,
2013-08-30 15:20:00,87.5,72.0,29.53,NNW,338,0.2,2.5,60,0.00,,,0.00,WUHU216HW,2013-08-30 19:20:00,
2013-08-30 15:25:00,87.3,71.3,29.53,SSE,158,1.8,2.2,59,0.00,,,0.00,WUHU216HW,2013-08-30 19:25:00,
2013-08-30 15:30:00,87.5,72.5,29.53,SSE,158,0.9,2.0,61,0.00,,,0.00,WUHU216HW,2013-08-30 19:30:00,
2013-08-30 15:35:00,88.0,72.6,29.53,SSE,158,2.2,2.2,60,0.00,,,0.00,WUHU216HW,2013-08-30 19:35:00,
2013-08-30 15:40:00,88.0,72.0,29.53,SSE,158,2.2,2.2,59,0.00,,,0.00,WUHU216HW,2013-08-30 19:40:00,
2013-08-30 15:45:00,87.8,72.4,29.53,SSE,158,0.4,4.0,60,0.00,,,0.00,WUHU216HW,2013-08-30 19:45:00,
2013-08-30 15:50:00,88.2,72.7,29.52,SSE,158,1.3,4.0,60,0.00,,,0.00,WUHU216HW,2013-08-30 19:50:00,
2013-08-30 15:55:00,88.0,72.6,29.53,SSW,203,0.9,2.5,60,0.00,,,0.00,WUHU216HW,2013-08-30 19:55:00,
2013-08-30 16:00:00,87.7,72.2,29.53,SSW,203,3.1,4.0,60,0.00,,,0.00,WUHU216HW,2013-08-30 20:00:00,
2013-08-30 16:05:00,87.8,72.8,29.52,South,180,0.4,4.0,61,0.00,,,0.00,WUHU216HW,2013-08-30 20:05:00,
2013-08-30 16:10:00,88.0,73.0,29.52,East,90,0.4,3.6,61,0.00,,,0.00,WUHU216HW,2013-08-30 20:10:00,
2013-08-30 16:15:00,87.7,72.2,29.52,SSE,158,2.5,2.5,60,0.00,,,0.00,WUHU216HW,2013-08-30 20:15:00,
2013-08-30 16:20:00,87.5,72.5,29.52,SSE,158,0.4,3.6,61,0.00,,,0.00,WUHU216HW,2013-08-30 20:20:00,
2013-08-30 16:25:00,86.8,71.3,29.52,South,180,1.1,3.6,60,0.00,,,0.00,WUHU216HW,2013-08-30 20:25:00,
2013-08-30 16:30:00,86.2,71.2,29.52,SSE,158,0.4,1.8,61,0.00,,,0.00,WUHU216HW,2013-08-30 20:30:00,
2013-08-30 16:35:00,85.9,71.4,29.52,SE,135,0.4,1.6,62,0.00,,,0.00,WUHU216HW,2013-08-30 20:35:00,
2013-08-30 16:40:00,85.7,71.2,29.52,SSE,158,0.9,1.8,62,0.00,,,0.00,WUHU216HW,2013-08-30 20:40:00,
2013-08-30 16:45:00,85.5,71.0,29.52,South,180,0.9,2.5,62,0.00,,,0.00,WUHU216HW,2013-08-30 20:45:00,
2013-08-30 16:50:00,85.7,71.2,29.52,SSE,158,1.1,2.5,62,0.00,,,0.00,WUHU216HW,2013-08-30 20:50:00,
2013-08-30 16:55:00,85.5,71.0,29.52,South,180,1.3,2.9,62,0.00,,,0.00,WUHU216HW,2013-08-30 20:55:00,
2013-08-30 17:00:00,85.3,70.8,29.52,South,180,1.1,2.9,62,0.00,,,0.00,WUHU216HW,2013-08-30 21:00:00,
2013-08-30 17:05:00,85.3,70.8,29.52,SSE,158,0.7,2.5,62,0.00,,,0.00,WUHU216HW,2013-08-30 21:05:00,
2013-08-30 17:10:00,85.3,70.8,29.52,South,180,1.3,2.5,62,0.00,,,0.00,WUHU216HW,2013-08-30 21:10:00,
2013-08-30 17:15:00,84.8,70.4,29.51,South,180,1.1,2.5,62,0.00,,,0.00,WUHU216HW,2013-08-30 21:15:00,
2013-08-30 17:20:00,84.6,70.2,29.51,SSW,203,1.1,2.5,62,0.00,,,0.00,WUHU216HW,2013-08-30 21:20:00,
2013-08-30 17:25:00,84.4,70.0,29.51,SSE,158,1.1,4.0,62,0.00,,,0.00,WUHU216HW,2013-08-30 21:25:00,
2013-08-30 17:30:00,84.2,69.8,29.51,South,180,1.1,4.0,62,0.00,,,0.00,WUHU216HW,2013-08-30 21:30:00,
2013-08-30 17:35:00,83.9,69.5,29.51,SSW,203,0.9,2.2,62,0.00,,,0.00,WUHU216HW,2013-08-30 21:35:00,
2013-08-30 17:40:00,83.9,69.5,29.51,SSE,158,1.1,2.2,62,0.00,,,0.00,WUHU216HW,2013-08-30 21:40:00,
2013-08-30 17:45:00,84.1,70.1,29.51,SSE,158,2.7,3.6,63,0.00,,,0.00,WUHU216HW,2013-08-30 21:45:00,
2013-08-30 17:50:00,83.9,69.9,29.51,SE,135,1.1,3.6,63,0.00,,,0.00,WUHU216HW,2013-08-30 21:50:00,
2013-08-30 17:55:00,83.5,69.6,29.51,SSE,158,1.8,2.7,63,0.00,,,0.00,WUHU216HW,2013-08-30 21:55:00,
2013-08-30 18:00:00,83.2,69.7,29.50,SSE,158,1.1,2.0,64,0.00,,,0.00,WUHU216HW,2013-08-30 22:00:00,
2013-08-30 18:05:00,82.8,68.9,29.50,SSE,158,0.7,3.4,63,0.00,,,0.00,WUHU216HW,2013-08-30 22:05:00,
2013-08-30 18:10:00,82.6,69.6,29.50,South,180,2.2,3.4,65,0.00,,,0.00,WUHU216HW,2013-08-30 22:10:00,
2013-08-30 18:15:00,82.3,68.8,29.50,SSW,203,2.7,4.0,64,0.00,,,0.00,WUHU216HW,2013-08-30 22:15:00,
2013-08-30 18:20:00,81.9,69.0,29.50,SSE,158,2.0,4.0,65,0.00,,,0.00,WUHU216HW,2013-08-30 22:20:00,
2013-08-30 18:25:00,81.5,69.0,29.50,SSW,203,1.8,3.8,66,0.00,,,0.00,WUHU216HW,2013-08-30 22:25:00,
2013-08-30 18:30:00,81.2,68.7,29.50,South,180,0.9,2.9,66,0.00,,,0.00,WUHU216HW,2013-08-30 22:30:00,
2013-08-30 18:35:00,80.8,68.4,29.50,SSE,158,1.1,2.7,66,0.00,,,0.00,WUHU216HW,2013-08-30 22:35:00,
2013-08-30 18:40:00,80.6,68.2,29.50,South,180,2.5,2.9,66,0.00,,,0.00,WUHU216HW,2013-08-30 22:40:00,
2013-08-30 18:45:00,80.5,68.5,29.50,SSW,203,2.0,3.6,67,0.00,,,0.00,WUHU216HW,2013-08-30 22:45:00,
2013-08-30 18:50:00,80.1,68.1,29.49,SSE,158,1.6,3.6,67,0.00,,,0.00,WUHU216HW,2013-08-30 22:50:00,
2013-08-30 18:55:00,79.7,67.8,29.49,SSW,203,1.8,2.2,67,0.00,,,0.00,WUHU216HW,2013-08-30 22:55:00,
2013-08-30 19:00:00,79.6,68.0,29.49,South,180,0.9,4.0,68,0.00,,,0.00,WUHU216HW,2013-08-30 23:00:00,
2013-08-30 19:05:00,79.2,67.7,29.49,South,180,1.3,4.0,68,0.00,,,0.00,WUHU216HW,2013-08-30 23:05:00,
2013-08-30 19:10:00,78.8,67.8,29.49,South,180,1.8,3.4,69,0.00,,,0.00,WUHU216HW,2013-08-30 23:10:00,
2013-08-30 19:14:00,78.7,68.0,29.49,SSE,158,2.5,3.4,70,0.00,,,0.00,WUHU216HW,2013-08-30 23:14:00,
2013-08-30 19:19:00,78.1,67.6,29.49,SSE,158,2.5,2.9,70,0.00,,,0.00,WUHU216HW,2013-08-30 23:19:00,
2013-08-30 19:24:00,77.8,67.2,29.49,South,180,1.1,2.5,70,0.00,,,0.00,WUHU216HW,2013-08-30 23:24:00,
2013-08-30 19:29:00,77.4,67.3,29.49,SW,225,1.3,2.7,71,0.00,,,0.00,WUHU216HW,2013-08-30 23:29:00,
2013-08-30 19:34:00,77.0,67.0,29.49,SSW,203,2.5,3.4,71,0.00,,,0.00,WUHU216HW,2013-08-30 23:34:00,
2013-08-30 19:39:00,76.9,67.1,29.49,SSW,203,2.5,3.4,72,0.00,,,0.00,WUHU216HW,2013-08-30 23:39:00,
2013-08-30 19:44:00,76.3,66.7,29.50,SSE,158,2.0,3.8,72,0.00,,,0.00,WUHU216HW,2013-08-30 23:44:00,
2013-08-30 19:49:00,76.0,66.3,29.50,SSW,203,2.0,3.8,72,0.00,,,0.00,WUHU216HW,2013-08-30 23:49:00,
2013-08-30 19:54:00,75.8,66.5,29.50,SSE,158,1.8,3.6,73,0.00,,,0.00,WUHU216HW,2013-08-30 23:54:00,
2013-08-30 19:59:00,75.4,66.2,29.50,SSE,158,2.5,3.1,73,0.00,,,0.00,WUHU216HW,2013-08-30 23:59:00,
2013-08-30 20:04:00,75.2,66.4,29.50,SSE,158,3.4,3.4,74,0.00,,,0.00,WUHU216HW,2013-08-31 00:04:00,
2013-08-30 20:09:00,74.9,66.1,29.50,SSE,158,2.0,4.0,74,0.00,,,0.00,WUHU216HW,2013-08-31 00:09:00,
2013-08-30 20:14:00,74.9,66.4,29.50,South,180,4.0,4.3,75,0.00,,,0.00,WUHU216HW,2013-08-31 00:14:00,
2013-08-30 20:19:00,74.7,66.2,29.50,SSE,158,1.3,4.3,75,0.00,,,0.00,WUHU216HW,2013-08-31 00:19:00,
2013-08-30 20:24:00,74.9,66.4,29.50,SSE,158,0.9,4.0,75,0.00,,,0.00,WUHU216HW,2013-08-31 00:24:00,
2013-08-30 20:29:00,74.7,66.2,29.50,SSW,203,1.1,1.8,75,0.00,,,0.00,WUHU216HW,2013-08-31 00:29:00,
2013-08-30 20:34:00,74.7,66.2,29.50,SSE,158,0.4,1.8,75,0.00,,,0.00,WUHU216HW,2013-08-31 00:34:00,
2013-08-30 20:39:00,74.5,66.1,29.50,SSE,158,1.1,1.8,75,0.00,,,0.00,WUHU216HW,2013-08-31 00:39:00,
2013-08-30 20:44:00,74.3,65.9,29.50,SSW,203,1.1,1.8,75,0.00,,,0.00,WUHU216HW,2013-08-31 00:44:00,
2013-08-30 20:49:00,74.3,65.9,29.50,SE,135,2.0,2.5,75,0.00,,,0.00,WUHU216HW,2013-08-31 00:49:00,
2013-08-30 20:54:00,74.2,65.8,29.50,SE,135,0.4,2.5,75,0.00,,,0.00,WUHU216HW,2013-08-31 00:54:00,
2013-08-30 20:59:00,74.2,66.2,29.50,SSE,158,0.7,2.5,76,0.00,,,0.00,WUHU216HW,2013-08-31 00:59:00,
2013-08-30 21:04:00,74.0,66.0,29.50,SSE,158,0.4,1.1,76,0.00,,,0.00,WUHU216HW,2013-08-31 01:04:00,
2013-08-30 21:09:00,73.8,65.8,29.50,South,180,1.1,1.8,76,0.00,,,0.00,WUHU216HW,2013-08-31 01:09:00,
2013-08-30 21:14:00,73.8,65.8,29.50,SSE,158,0.9,1.8,76,0.00,,,0.00,WUHU216HW,2013-08-31 01:14:00,
2013-08-30 21:19:00,73.6,66.0,29.50,South,180,1.1,1.6,77,0.00,,,0.00,WUHU216HW,2013-08-31 01:19:00,
2013-08-30 21:24:00,73.6,66.0,29.50,SSE,158,1.1,1.1,77,0.00,,,0.00,WUHU216HW,2013-08-31 01:24:00,
2013-08-30 21:29:00,73.4,65.8,29.50,SSE,158,1.1,1.3,77,0.00,,,0.00,WUHU216HW,2013-08-31 01:29:00,
2013-08-30 21:34:00,73.4,65.8,29.50,SSE,158,1.1,2.0,77,0.00,,,0.00,WUHU216HW,2013-08-31 01:34:00,
2013-08-30 21:39:00,73.3,66.1,29.50,SSE,158,0.7,2.0,78,0.00,,,0.00,WUHU216HW,2013-08-31 01:39:00,
2013-08-30 21:44:00,73.1,65.9,29.50,SSW,203,1.6,1.8,78,0.00,,,0.00,WUHU216HW,2013-08-31 01:44:00,
2013-08-30 21:49:00,73.1,65.9,29.50,SSE,158,0.4,1.6,78,0.00,,,0.00,WUHU216HW,2013-08-31 01:49:00,
2013-08-30 21:54:00,73.1,65.9,29.50,South,180,0.9,1.6,78,0.00,,,0.00,WUHU216HW,2013-08-31 01:54:00,
2013-08-30 21:59:00,73.1,65.9,29.50,SSE,158,0.4,2.0,78,0.00,,,0.00,WUHU216HW,2013-08-31 01:59:00,
2013-08-30 22:04:00,73.1,65.9,29.50,SSE,158,0.4,2.0,78,0.00,,,0.00,WUHU216HW,2013-08-31 02:04:00,
2013-08-30 22:09:00,72.9,65.7,29.49,SSE,158,1.1,1.1,78,0.00,,,0.00,WUHU216HW,2013-08-31 02:09:00,
2013-08-30 22:14:00,72.9,65.7,29.50,SSE,158,0.9,1.1,78,0.00,,,0.00,WUHU216HW,2013-08-31 02:14:00,
2013-08-30 22:19:00,72.7,65.9,29.50,SE,135,0.4,1.1,79,0.00,,,0.00,WUHU216HW,2013-08-31 02:19:00,
2013-08-30 22:24:00,72.7,65.9,29.49,SE,135,0.7,1.1,79,0.00,,,0.00,WUHU216HW,2013-08-31 02:24:00,
2013-08-30 22:29:00,72.5,65.7,29.49,SE,135,0.4,1.1,79,0.00,,,0.00,WUHU216HW,2013-08-31 02:29:00,
2013-08-30 22:34:00,72.4,65.2,29.49,SSE,158,0.4,1.1,78,0.00,,,0.00,WUHU216HW,2013-08-31 02:34:00,
2013-08-30 22:39:00,72.4,65.5,29.50,SSE,158,0.9,1.3,79,0.00,,,0.00,WUHU216HW,2013-08-31 02:39:00,
2013-08-30 22:44:00,72.0,65.2,29.49,SE,135,0.9,1.8,79,0.00,,,0.00,WUHU216HW,2013-08-31 02:44:00,
2013-08-30 22:49:00,71.8,65.3,29.49,SE,135,0.9,1.8,80,0.00,,,0.00,WUHU216HW,2013-08-31 02:49:00,
2013-08-30 22:54:00,71.8,65.3,29.49,SSE,158,1.1,1.6,80,0.00,,,0.00,WUHU216HW,2013-08-31 02:54:00,
2013-08-30 22:59:00,71.8,65.3,29.49,SE,135,0.9,1.8,80,0.00,,,0.00,WUHU216HW,2013-08-31 02:59:00,
2013-08-30 23:04:00,71.6,65.2,29.48,South,180,1.1,1.8,80,0.00,,,0.00,WUHU216HW,2013-08-31 03:04:00,
2013-08-30 23:09:00,71.5,65.0,29.49,SE,135,1.1,1.8,80,0.00,,,0.00,WUHU216HW,2013-08-31 03:09:00,
2013-08-30 23:14:00,71.5,65.0,29.49,SE,135,0.9,1.3,80,0.00,,,0.00,WUHU216HW,2013-08-31 03:14:00,
2013-08-30 23:19:00,71.5,65.0,29.48,SSE,158,0.9,1.1,80,0.00,,,0.00,WUHU216HW,2013-08-31 03:19:00,
2013-08-30 23:24:00,71.6,65.2,29.48,SE,135,0.7,1.1,80,0.00,,,0.00,WUHU216HW,2013-08-31 03:24:00,
2013-08-30 23:29:00,71.6,65.2,29.48,SE,135,0.9,1.1,80,0.00,,,0.00,WUHU216HW,2013-08-31 03:29:00,
2013-08-30 23:34:00,71.6,65.5,29.48,SSE,158,2.0,2.0,81,0.00,,,0.00,WUHU216HW,2013-08-31 03:34:00,
2013-08-30 23:39:00,71.5,65.4,29.48,SSE,158,1.1,2.0,81,0.00,,,0.00,WUHU216HW,2013-08-31 03:39:00,
2013-08-30 23:44:00,71.3,65.2,29.48,SE,135,1.3,1.8,81,0.00,,,0.00,WUHU216HW,2013-08-31 03:44:00,
2013-08-30 23:49:00,71.3,65.2,29.48,SSE,158,1.3,1.8,81,0.00,,,0.00,WUHU216HW,2013-08-31 03:49:00,
2013-08-30 23:54:00,71.1,65.0,29.48,South,180,1.8,2.0,81,0.00,,,0.00,WUHU216HW,2013-08-31 03:54:00,
2013-08-30 23:59:00,71.3,65.2,29.48,South,180,2.5,3.4,81,0.00,,,0.00,WUHU216HW,2013-08-31 03:59:00,